• En España
  • Lista de países
  • Para 7 días
  • Temperatura del agua
  • Mapa Satelital
  • El tiempo en el mapa
  • Informadores
  • user-avatar
    Iniciar sesión

    Tiempo cada hora Dobre

    Hoy, 16 Octubre, Martes

    Tiempo Temperatura Precipitaciones Viento Presión Humedad
    00:00 +10°C° 0 mm 3 mps 752 mmHg 68%
    01:00 +10°C° 0 mm 3 mps 752 mmHg 71%
    02:00 +10°C° 0 mm 2 mps 752 mmHg 72%
    03:00 +9°C° 0 mm 2 mps 752 mmHg 74%
    04:00 +9°C° 0 mm 2 mps 752 mmHg 76%
    05:00 +9°C° 0 mm 2 mps 752 mmHg 75%
    06:00 +9°C° 0 mm 2 mps 752 mmHg 74%
    07:00 +9°C° 0 mm 2 mps 752 mmHg 73%
    08:00 +13°C° 0 mm 2 mps 752 mmHg 64%
    09:00 +15°C° 0 mm 2 mps 753 mmHg 56%
    10:00 +17°C° 0 mm 2 mps 753 mmHg 47%
    11:00 +18°C° 0 mm 2 mps 752 mmHg 43%
    12:00 +19°C° 0 mm 2 mps 752 mmHg 39%
    13:00 +20°C° 0 mm 2 mps 752 mmHg 35%
    14:00 +19°C° 0 mm 2 mps 752 mmHg 38%
    15:00 +18°C° 0 mm 2 mps 752 mmHg 42%
    16:00 +18°C° 0 mm 1 mps 752 mmHg 45%
    17:00 +16°C° 0 mm 1 mps 752 mmHg 47%
    18:00 +15°C° 0 mm 1 mps 752 mmHg 50%
    19:00 +13°C° 0 mm 1 mps 752 mmHg 53%
    20:00 +13°C° 0 mm 1 mps 752 mmHg 54%
    21:00 +12°C° 0 mm 1 mps 752 mmHg 55%
    22:00 +12°C° 0 mm 1 mps 752 mmHg 57%
    23:00 +12°C° 0 mm 1 mps 753 mmHg 58%

    Mañana, 17 Octubre, Miércoles

    Tiempo Temperatura Precipitaciones Viento Presión Humedad
    00:00 +11°C° 0 mm 1 mps 753 mmHg 59%
    01:00 +11°C° 0 mm 1 mps 753 mmHg 61%
    02:00 +11°C° 0 mm 1 mps 753 mmHg 62%
    03:00 +10°C° 0 mm 1 mps 753 mmHg 63%
    04:00 +10°C° 0 mm 1 mps 752 mmHg 64%
    05:00 +10°C° 0 mm 1 mps 753 mmHg 64%
    06:00 +10°C° 0 mm 1 mps 753 mmHg 64%
    07:00 +10°C° 0 mm 1 mps 753 mmHg 64%
    08:00 +13°C° 0 mm 1 mps 753 mmHg 57%
    09:00 +15°C° 0 mm 1 mps 753 mmHg 51%
    10:00 +17°C° 0 mm 2 mps 753 mmHg 44%
    11:00 +19°C° 0 mm 1 mps 753 mmHg 41%
    12:00 +20°C° 0 mm 1 mps 753 mmHg 38%
    13:00 +21°C° 0 mm 1 mps 752 mmHg 35%
    14:00 +20°C° 0 mm 1 mps 752 mmHg 39%
    15:00 +18°C° 0 mm 2 mps 752 mmHg 42%
    16:00 +17°C° 0 mm 2 mps 752 mmHg 46%
    17:00 +16°C° 0 mm 2 mps 752 mmHg 50%
    18:00 +15°C° 0 mm 2 mps 752 mmHg 54%
    19:00 +14°C° 0 mm 2 mps 752 mmHg 58%
    20:00 +13°C° 0 mm 2 mps 752 mmHg 60%
    21:00 +13°C° 0 mm 2 mps 752 mmHg 63%
    22:00 +12°C° 0 mm 2 mps 752 mmHg 66%
    23:00 +12°C° 0 mm 2 mps 752 mmHg 69%

    Pasado mañana, 18 Octubre, Jueves

    Tiempo Temperatura Precipitaciones Viento Presión Humedad
    00:00 +12°C° 0 mm 2 mps 752 mmHg 71%
    01:00 +10°C° 0 mm 2 mps 752 mmHg 74%
    02:00 +10°C° 0 mm 2 mps 752 mmHg 77%
    03:00 +10°C° 0 mm 2 mps 751 mmHg 80%
    04:00 +10°C° 0 mm 2 mps 751 mmHg 83%
    05:00 +11°C° 0 mm 1 mps 751 mmHg 83%
    06:00 +11°C° 0 mm 1 mps 751 mmHg 84%
    07:00 +11°C° 0 mm 1 mps 751 mmHg 84%
    08:00 +13°C° 0 mm 1 mps 751 mmHg 77%
    09:00 +15°C° 0 mm 1 mps 751 mmHg 69%
    10:00 +16°C° 0 mm 1 mps 751 mmHg 61%
    11:00 +18°C° 0 mm 1 mps 751 mmHg 57%
    12:00 +20°C° 0 mm 1 mps 751 mmHg 53%
    13:00 +21°C° 0 mm 1 mps 750 mmHg 49%
    14:00 +20°C° 0 mm 1 mps 750 mmHg 52%
    15:00 +19°C° 0 mm 1 mps 750 mmHg 55%
    16:00 +16°C° 0 mm 0 mps 750 mmHg 59%
    17:00 +16°C° 0 mm 1 mps 750 mmHg 62%
    18:00 +15°C° 0 mm 1 mps 750 mmHg 65%
    19:00 +14°C° 0 mm 1 mps 750 mmHg 69%
    20:00 +13°C° 0 mm 1 mps 750 mmHg 71%
    21:00 +13°C° 0 mm 1 mps 750 mmHg 73%
    22:00 +12°C° 0 mm 1 mps 750 mmHg 75%
    23:00 +12°C° 0 mm 1 mps 750 mmHg 77%

    19 Octubre, Viernes

    Tiempo Temperatura Precipitaciones Viento Presión Humedad
    00:00 +12°C° 0 mm 1 mps 750 mmHg 78%
    01:00 +11°C° 0 mm 1 mps 750 mmHg 80%
    02:00 +11°C° 0 mm 1 mps 750 mmHg 81%
    03:00 +11°C° 0 mm 1 mps 750 mmHg 82%
    04:00 +11°C° 0 mm 1 mps 750 mmHg 83%
    05:00 +11°C° 0 mm 1 mps 750 mmHg 82%
    06:00 +11°C° 0 mm 1 mps 750 mmHg 81%
    07:00 +11°C° 0 mm 1 mps 750 mmHg 80%
    08:00 +13°C° 0 mm 2 mps 751 mmHg 74%
    09:00 +14°C° 0 mm 2 mps 751 mmHg 68%
    10:00 +16°C° 0 mm 2 mps 751 mmHg 62%
    11:00 +16°C° 0 mm 2 mps 751 mmHg 60%
    12:00 +17°C° 0 mm 2 mps 751 mmHg 57%
    13:00 +18°C° 0 mm 2 mps 751 mmHg 54%
    14:00 +17°C° 0 mm 2 mps 751 mmHg 58%
    15:00 +16°C° 0 mm 2 mps 751 mmHg 61%
    16:00 +16°C° 0 mm 2 mps 751 mmHg 64%
    17:00 +15°C° 0 mm 2 mps 751 mmHg 67%
    18:00 +14°C° 0 mm 2 mps 751 mmHg 70%
    19:00 +14°C° 0 mm 2 mps 751 mmHg 74%
    20:00 +13°C° 0 mm 2 mps 751 mmHg 76%
    21:00 +13°C° 0 mm 2 mps 752 mmHg 79%
    22:00 +12°C° 0 mm 2 mps 752 mmHg 81%
    23:00 +12°C° 0 mm 2 mps 752 mmHg 83%

    20 Octubre, Sábado

    Tiempo Temperatura Precipitaciones Viento Presión Humedad
    00:00 +10°C° 0 mm 2 mps 752 mmHg 86%
    01:00 +10°C° 0 mm 2 mps 752 mmHg 88%
    02:00 +9°C° 0 mm 2 mps 752 mmHg 90%
    03:00 +9°C° 0 mm 2 mps 752 mmHg 92%
    04:00 +8°C° 0 mm 2 mps 752 mmHg 93%
    05:00 +8°C° 0 mm 2 mps 753 mmHg 94%
    06:00 +8°C° 0 mm 2 mps 753 mmHg 95%
    07:00 +8°C° 0 mm 2 mps 753 mmHg 95%
    08:00 +10°C° 0 mm 2 mps 753 mmHg 89%
    09:00 +11°C° 0 mm 3 mps 754 mmHg 82%
    10:00 +13°C° 0 mm 3 mps 754 mmHg 75%
    11:00 +13°C° 0 mm 3 mps 754 mmHg 70%
    12:00 +14°C° 0 mm 4 mps 754 mmHg 64%
    13:00 +14°C° 0 mm 4 mps 754 mmHg 59%
    14:00 +13°C° 0 mm 4 mps 754 mmHg 59%
    15:00 +13°C° 0 mm 4 mps 754 mmHg 60%
    16:00 +12°C° 0 mm 4 mps 754 mmHg 60%
    17:00 +11°C° 0 mm 3 mps 755 mmHg 64%
    18:00 +10°C° 0 mm 3 mps 755 mmHg 67%
    19:00 +9°C° 0 mm 3 mps 755 mmHg 71%
    20:00 +8°C° 0 mm 3 mps 755 mmHg 72%
    21:00 +8°C° 0 mm 2 mps 755 mmHg 73%
    22:00 +7°C° 0 mm 2 mps 755 mmHg 74%
    23:00 +7°C° 0 mm 3 mps 755 mmHg 74%

    21 Octubre, Domingo

    Tiempo Temperatura Precipitaciones Viento Presión Humedad
    00:00 +8°C° 0 mm 3 mps 755 mmHg 74%
    01:00 +8°C° 0 mm 3 mps 755 mmHg 74%
    02:00 +8°C° 0 mm 3 mps 755 mmHg 77%
    03:00 +8°C° 0 mm 3 mps 755 mmHg 80%
    04:00 +7°C° 0 mm 4 mps 755 mmHg 82%
    05:00 +7°C° 0 mm 4 mps 755 mmHg 84%
    06:00 +7°C° 0 mm 4 mps 755 mmHg 85%
    07:00 +7°C° 0 mm 4 mps 755 mmHg 87%
    08:00 +8°C° 0 mm 4 mps 755 mmHg 82%
    09:00 +10°C° 0 mm 4 mps 755 mmHg 78%
    10:00 +11°C° 0 mm 4 mps 756 mmHg 74%
    11:00 +12°C° 0 mm 4 mps 755 mmHg 72%
    12:00 +12°C° 0 mm 4 mps 755 mmHg 70%
    13:00 +13°C° 0 mm 4 mps 755 mmHg 67%
    14:00 +13°C° 0 mm 4 mps 755 mmHg 68%
    15:00 +13°C° 0 mm 3 mps 755 mmHg 68%
    16:00 +12°C° 0 mm 3 mps 754 mmHg 69%
    17:00 +11°C° 0 mm 3 mps 754 mmHg 72%
    18:00 +11°C° 0 mm 3 mps 754 mmHg 75%
    19:00 +10°C° 0 mm 3 mps 754 mmHg 78%
    20:00 +10°C° 0 mm 3 mps 754 mmHg 76%
    21:00 +8°C° 0 mm 4 mps 754 mmHg 75%
    22:00 +8°C° 0 mm 4 mps 754 mmHg 74%
    23:00 +8°C° 0 mm 4 mps 754 mmHg 71%
    Mostrar más